Location: B�hmdorf
(48.8167°N, 14.1500°E)
Time: 12:01:37
(UTC+00:00)

Daily predictions for brighter satellites

Satellite Brightness Start Highest point End
(mag) Time Altitude Azimuth Time Altitude Azimuth Time Altitude Azimuth
Cosmos 1461 3.8 19:45:57 10° NNW 19:50:03 41° NE 19:53:56 10° ESE
ERS-1 Rocket 3.8 19:45:30 10° SE 19:50:06 37° ENE 19:54:43 10° N
Cosmos 1674 Rocket 4.2 19:50:40 10° SSW 19:55:01 59° WNW 19:59:22 10° N
Cosmos 1626 3.9 19:53:18 10° SE 19:55:47 17° E 19:58:16 10° NE
ERS-2 4.4 19:53:59 10° N 19:57:10 29° WNW 20:00:20 10° SW
SL-8 R/B 3.7 19:52:56 10° W 19:57:45 81° S 20:02:33 10° ESE
SPOT 3 Rocket 3.9 19:53:23 10° S 19:58:30 69° WSW 20:03:42 10° NNW
USA 215 4.5 19:55:09 10° E 19:59:29 18° ESE 20:03:47 10° SSE
Landsat 7 4.2 19:55:28 10° S 20:00:11 65° WSW 20:04:57 10° NNW
Cosmos 1741 Rocket 4.2 19:56:27 10° NNW 20:01:42 65° ENE 20:06:56 10° SSE
Cosmos 2100 Rocket 4.3 19:57:13 10° N 20:03:30 56° ENE 20:09:42 10° SSE
USA 238 DEB 3.8 19:57:36 10° SW 20:04:12 82° NW 20:11:11 10° NE
USA 238 3.8 19:57:43 10° SW 20:04:19 83° NW 20:11:17 10° NE
ATLAS CENTAUR R/B 3.0 20:01:27 10° NNW 20:05:11 29° NE 20:09:06 10° E
SL-16 R/B 2.2 19:59:57 10° SSW 20:05:35 75° ESE 20:11:16 10° NNE
KORONAS-FOTON 4.4 20:02:11 10° SSE 20:05:43 38° E 20:09:16 10° NNE
Cosmos 2360 Rocket 2.8 20:02:14 10° S 20:07:22 37° ESE 20:12:32 10° NE
Cosmos 2322 Rocket 2.3 20:02:52 10° SSW 20:08:29 63° ESE 20:14:08 10° NNE
ARIANE 5 R/B 2.7 20:06:19 10° SSE 20:10:43 68° ENE 20:15:11 10° N
CZ-2C R/B 3.8 20:06:26 10° NNE 20:11:14 83° ESE 20:16:01 10° SSW
Genesis I 3.2 20:07:55 10° SW 20:11:46 88° WNW 20:15:45 10° NE
Meteor 1-16 Rocket 4.2 20:08:39 10° N 20:14:10 67° ENE 20:19:30 10° SSE
Cosmos 1470 4.1 20:11:10 10° NNW 20:14:52 38° W 20:18:33 10° SSW
CENTAUR R/B 2.9 20:10:03 10° SW 20:16:04 75° NW 20:23:23 10° NE
COSMOS 2428 4.3 20:19:05 11° SE 20:22:21 17° E 20:25:54 10° ENE
Cosmos 2173 Rocket 4.1 20:16:52 10° N 20:23:15 72° ENE 20:29:31 10° SSE
Cosmos 1315 Rocket 4.3 20:21:34 10° NNW 20:25:22 35° W 20:29:07 10° SSW
Cosmos 2016 Rocket 4.3 20:20:07 10° N 20:26:04 51° ENE 20:31:26 13° SSE
USA 81 4.5 20:21:20 10° NNW 20:26:33 63° W 20:31:44 10° S
Cosmos 1674 2.6 20:22:53 10° S 20:26:35 67° E 20:30:17 10° NNE
Cosmos 2237 4.2 20:21:41 10° SSW 20:27:18 64° ESE 20:32:56 10° NNE
Cosmos 1980 Rocket 4.4 20:22:30 10° WSW 20:27:24 29° NW 20:32:18 10° NNE
Cosmos 1544 Rocket 3.9 20:23:14 10° N 20:27:38 54° ENE 20:31:23 14° SSE
H-2A R/B 4.5 20:26:37 10° NE 20:30:11 29° E 20:32:57 14° SSE
Cosmos 2278 Rocket 4.1 20:26:02 10° N 20:30:23 22° NE 20:34:42 10° E
NOSS 8 (A) 4.0 20:28:33 10° SW 20:31:52 75° SE 20:34:46 10° NE
Cosmos 1455 Rocket 3.1 20:28:12 10° N 20:32:41 86° W 20:36:54 11° S
Cosmos 1300 3.9 20:29:42 10° N 20:33:03 28° ENE 20:35:40 14° SE
USA 267 4.0 20:28:57 10° E 20:35:14 52° NNE 20:41:33 10° WNW
Cosmos 1727 Rocket 4.3 20:29:15 10° SSW 20:35:34 73° W 20:41:53 10° N
Cosmos 1725 Rocket 4.3 20:31:23 10° N 20:37:26 54° ENE 20:42:36 14° SSE
Cosmos 1110 Rocket 4.0 20:36:09 10° S 20:41:13 60° ESE 20:46:22 10° NNE
Cosmos 1844 Rocket 2.7 20:37:12 10° NNW 20:42:55 85° WSW 20:47:39 15° SSE
BREEZE-M DEB (TANK) 2.8 20:41:25 10° SW 20:43:59 55° SSE 20:49:46 10° ENE
Meteor 2-5 Rocket 4.4 20:42:18 15° SSE 20:46:23 37° E 20:51:29 10° NNE
Cosmos 968 Rocket 4.4 20:44:41 10° N 20:49:28 38° ENE 20:53:31 14° ESE
Cosmos 1802 Rocket 4.0 20:44:05 10° N 20:50:22 88° ENE 20:55:59 14° S
Cosmos 1908 3.6 20:47:18 10° NNW 20:51:09 60° W 20:54:25 14° S
Cosmos 1340 3.0 20:51:54 18° SSE 20:54:26 48° E 20:58:05 10° NNE
Cosmos 2263 Rocket 4.4 20:51:31 10° WNW 20:55:05 17° W 20:58:38 10° SW
Lacrosse 5 rocket 1.5 20:52:08 10° SSW 20:55:31 36° SE 20:58:51 10° ENE
Cosmos 1900 4.3 20:50:51 10° NW 20:55:47 87° NE 20:59:24 18° SE
SPOT 5 3.3 20:53:08 13° S 20:57:47 63° WSW 21:02:42 10° NNW
GEOS 3 Rocket 4.1 20:54:56 12° ESE 20:59:51 58° NE 21:05:06 10° NW
Cosmos 405 3.0 20:56:40 10° N 21:00:07 64° ENE 21:02:06 23° SSE
Cosmos 1536 Rocket 3.8 20:58:17 18° SSE 21:01:27 54° E 21:05:49 10° NNE
Cosmos 1452 Rocket 4.4 20:57:59 10° SW 21:03:06 50° WNW 21:08:17 10° NNE
DNEPR-1 R/B 3.6 20:58:56 10° NW 21:03:10 72° NE 21:06:15 19° SE
Cosmos 2333 4.3 20:58:13 10° S 21:03:49 57° ESE 21:09:26 10° NE
Cosmos 1459 Rocket 4.4 21:03:03 10° NNW 21:08:57 57° W 21:14:34 11° SSW
Terra 2.1 21:06:08 16° S 21:09:51 65° WSW 21:14:37 10° NNW
Resurs 01 Rocket 4.3 21:08:28 10° WSW 21:10:02 12° W 21:11:36 10° WNW
Cosmos 1953 3.7 21:07:55 10° NNW 21:11:36 33° W 21:15:10 10° SSW
Lacrosse 5 3.8 21:09:46 10° W 21:13:03 17° WSW 21:16:06 11° SSW
Cosmos 2333 Rocket 2.3 21:09:00 12° S 21:14:09 57° ESE 21:19:45 10° NE
Cosmos 1025 Rocket 3.4 21:10:01 10° SSW 21:14:18 64° WNW 21:18:40 10° N
OPS 8737 4.5 21:12:15 10° SSW 21:16:13 58° SE 21:19:18 10° NE
SL-14 R/B 3.4 21:17:36 17° SSW 21:20:38 81° W 21:24:42 10° N
Cosmos 2228 3.6 21:17:51 10° N 21:22:07 46° ENE 21:24:34 23° SE
FALCON 9 DEB 3.0 21:19:58 10° WSW 21:23:23 83° SSE 21:26:49 10° ENE
Cosmos 2061 Rocket 4.3 21:18:11 10° NNW 21:24:36 69° W 21:29:43 16° S
ATLAS 3B R/B 2.6 21:19:45 10° SSW 21:26:11 63° ESE 21:32:51 10° NE
Cosmos 1844 4.2 21:21:11 10° NW 21:26:33 49° WSW 21:30:18 19° S
ERS-1 Rocket 4.2 21:24:38 11° SSW 21:28:55 34° W 21:33:30 10° NNW
Cosmos 1461 4.2 21:25:20 10° WNW 21:28:57 28° WSW 21:30:58 19° SSW
Cosmos 1331 Rocket 4.4 21:23:50 10° SW 21:29:01 63° WNW 21:34:18 10° NNE
Cosmos 2219 Rocket 2.2 21:24:38 15° S 21:29:20 64° ESE 21:34:58 10° NNE
Cosmos 1626 3.4 21:27:15 10° SW 21:30:42 37° WNW 21:34:11 10° N
Meteor 1-24 Rocket 3.6 21:30:57 21° S 21:34:37 73° E 21:40:05 10° NNE
Meteor 2-10 Rocket 3.5 21:29:41 10° N 21:34:49 70° ENE 21:37:47 25° SSE
BREEZE-M DEB (TANK) 4.3 21:38:28 10° WSW 21:39:08 11° WSW 21:39:08 11° WSW
SL-8 R/B 4.2 21:35:33 10° W 21:40:01 39° SSW 21:41:58 27° SSE
Cosmos 2123 Rocket 4.4 21:34:03 11° SSW 21:40:06 64° WNW 21:46:25 10° N
BREEZE-M DEB (TANK) 2.2 21:38:54 10° WSW 21:41:43 70° SSE 21:48:31 10° ENE
USA 215 3.2 21:36:55 10° ENE 21:43:24 62° SE 21:49:52 10° SW
ATLAS CENTAUR R/B 1.9 21:40:04 10° NW 21:44:17 53° WSW 21:46:25 28° S
Cosmos 2237 Rocket 3.3 21:42:20 21° SE 21:44:29 27° ESE 21:49:09 10° NE
FALCON 9 DEB 3.1 21:44:47 43° SE 21:44:47 43° SE 21:47:41 10° ENE
Cosmos 2058 Rocket 4.2 21:41:56 10° N 21:46:01 34° ENE 21:48:18 21° ESE
Cosmos 1302 Rocket 4.0 21:42:29 14° SSW 21:47:04 83° WNW 21:52:22 10° NNE
FALCON 9 DEB 3.9 21:47:55 30° ESE 21:47:55 30° ESE 21:50:01 10° ENE
Cosmos 967 Rocket 4.5 21:42:14 10° NW 21:48:38 86° SW 21:52:51 23° SSE
Cosmos 1867 3.6 21:43:09 10° NW 21:48:41 81° NE 21:52:15 22° SE
Cosmos 2233 Rocket 4.1 21:42:44 10° NNW 21:48:52 73° W 21:53:01 22° S
Iridium 2 4.2 21:48:10 31° SE 21:49:29 45° E 21:53:05 10° NNE
SL-16 R/B 4.5 21:45:40 10° W 21:50:17 25° NW 21:54:56 10° N
Cosmos 2360 Rocket 3.4 21:45:58 10° SW 21:51:19 42° NW 21:56:42 10° NNE
Cosmos 2322 Rocket 4.2 21:48:03 10° WSW 21:52:58 29° NW 21:57:54 10° NNE
FALCON 9 DEB 3.0 21:53:44 48° SSE 21:53:46 48° SSE 21:56:48 10° ENE
Cosmos 1447 Rocket 4.5 21:50:21 22° S 21:54:38 83° E 22:00:52 10° N
Spot 4 3.8 21:52:23 27° SSE 21:54:59 78° ENE 21:59:47 10° NNW
Cosmos 1726 Rocket 3.7 21:51:58 10° N 21:56:26 67° ENE 21:58:33 30° SSE
Centaur D AC-29 4.3 21:49:01 10° WSW 21:56:32 14° SW 21:59:44 11° SSW
Cosmos 1455 2.5 21:57:24 10° N 22:01:12 56° ENE 22:02:38 33° SE
Cosmos 389 Rocket 2.4 21:59:00 10° NNW 22:02:26 74° W 22:03:30 41° S
NOSS 0 Rocket 4.2 22:01:25 25° S 22:04:54 52° ESE 22:10:56 10° NE
COSMOS 2428 2.7 22:01:02 15° SSW 22:05:50 87° WNW 22:11:39 10° NNE
Cosmos 1300 4.5 22:05:28 10° NW 22:08:35 24° W 22:10:36 16° SW
Cosmos 2322 4.2 22:03:20 10° SW 22:08:55 60° WNW 22:14:32 10° NNE
Meteor 1-4 Rocket 4.5 22:06:36 10° NNE 22:09:15 20° ENE 22:10:44 15° E
Cosmos 1606 Rocket 3.7 22:05:57 10° NNW 22:10:26 71° W 22:12:29 31° S
ALOS 2 2.7 22:11:48 31° SSE 22:13:50 68° ENE 22:18:13 10° N
Cosmos 1892 Rocket 3.6 22:12:19 33° SSE 22:14:10 66° E 22:18:36 10° NNE
COBE Rocket 3.9 22:12:19 29° SSE 22:14:57 85° ENE 22:19:57 10° NNW
Cosmos 2278 Rocket 2.2 22:09:32 10° NNW 22:15:15 89° WSW 22:18:27 27° SSE
SJ 16-02 3.5 22:13:09 10° N 22:16:22 20° NE 22:19:34 10° E
USA 267 3.2 22:12:27 15° SE 22:18:03 82° SW 22:24:39 10° WNW
Cosmos 1486 Rocket 4.3 22:13:09 10° NNW 22:18:17 57° WSW 22:20:48 29° S
Cosmos 1346 Rocket 3.2 22:19:17 26° SW 22:21:19 57° WNW 22:25:18 10° N
SL-4 R/B 3.1 22:30:02 24° ESE 22:30:02 24° ESE 22:32:14 10° E
GENESIS II 4.5 22:29:00 41° SSE 22:29:46 48° ESE 22:33:33 10° NE
Cosmos 968 Rocket 4.5 22:26:37 10° NW 22:31:12 34° WSW 22:33:31 23° SSW
Cosmos 1354 Rocket 4.0 22:25:54 10° NNW 22:31:17 86° WSW 22:33:59 30° SSE
Cosmos 1464 Rocket 4.0 22:26:20 10° N 22:32:43 88° W 22:36:22 28° S
Lacrosse 5 rocket 2.2 22:31:06 10° W 22:34:34 42° NNW 22:38:00 10° NE
Cosmos 1992 Rocket 4.1 22:32:38 23° SSW 22:35:59 75° WNW 22:41:15 10° NNE
MTI 3.9 22:34:05 10° NNE 22:37:04 50° E 22:37:18 49° ESE
Cosmos 1184 Rocket 2.6 22:38:30 56° SSW 22:39:07 89° NW 22:42:23 10° NNE
Cosmos 1607 3.9 22:37:41 10° NW 22:44:08 76° SW 22:47:53 26° SSE
Cosmos 2346 Rocket 4.4 22:40:50 28° S 22:44:14 81° E 22:50:26 10° N
Cosmos 1626 Rocket 4.0 22:43:28 32° SSE 22:45:06 49° E 22:49:24 10° NNE
Meteor 2-1 Rocket 4.2 22:40:36 10° NNW 22:46:07 77° W 22:48:54 30° S
Cosmos 1703 3.2 22:49:57 42° S 22:51:14 90° NNW 22:55:13 10° N
Cosmos 1602 Rocket 4.3 22:49:55 29° SE 22:51:35 42° E 22:55:49 10° NNE
Cosmos 1441 Rocket 3.1 22:52:52 43° S 22:54:04 89° ENE 22:57:55 10° NNE
Cosmos 1980 3.7 22:50:46 25° SSW 22:54:13 88° WNW 22:59:57 10° NNE
Cosmos 1816 Rocket 4.5 22:52:10 29° S 22:55:28 72° E 23:01:35 10° NNE
Cosmos 192 4.3 22:54:35 32° SSW 22:56:54 85° ESE 23:01:52 10° NNE
FALCON 9 DEB 3.0 22:56:15 23° WSW 22:58:01 72° NNW 23:01:09 10° ENE
Cosmos 2333 Rocket 3.9 22:53:41 10° WSW 22:58:45 31° NW 23:03:50 10° NNE
Cosmos 1943 Rocket 3.0 22:54:17 10° NNW 22:59:36 47° NE 23:04:20 13° SE
FALCON 9 DEB 4.5 22:57:14 10° W 23:00:30 41° N 23:03:45 10° ENE
Cosmos 1328 3.7 22:59:39 43° S 23:00:47 73° E 23:04:41 10° NNE
Cosmos 2034 Rocket 4.0 22:59:55 10° NNW 23:06:06 72° W 23:09:25 29° S
BREEZE-M DEB (TANK) 2.3 23:00:05 10° WSW 23:06:34 63° SSE 23:09:10 10° E
Okean 1-7 Rocket 3.8 23:06:13 31° SSW 23:08:11 62° WNW 23:12:37 10° N
NOSS 3-1 (C) 4.1 23:09:27 26° SSE 23:11:18 33° ESE 23:16:39 10° NE
Resurs 1-4 Rocket 4.3 23:10:56 10° ENE 23:13:34 14° E 23:16:11 10° ESE
Cosmos 2219 Rocket 4.0 23:08:53 10° WSW 23:13:45 28° NW 23:18:37 10° NNE
SAR-Lupe-2 3.9 23:10:50 10° N 23:14:22 57° WNW 23:15:31 37° SW
EO 1 Del DPAF 4.0 23:13:14 10° NNE 23:16:45 38° E 23:17:43 32° SE
ATLAS 3B R/B 3.9 23:11:02 10° WSW 23:17:14 41° NNW 23:23:42 10° NE
Cosmos-2242 3.6 23:14:35 10° N 23:18:54 51° ENE 23:21:04 26° SE
FALCON 9 DEB 3.8 23:17:19 10° W 23:20:19 47° NNW 23:23:20 10° ENE
USA 32 4.0 23:16:18 10° N 23:21:34 80° W 23:24:07 32° S
CZ-2D R/B 4.2 23:18:55 10° NE 23:21:54 15° E 23:24:51 10° ESE
FALCON 9 DEB 3.6 23:19:50 11° W 23:22:45 52° NNW 23:25:49 10° ENE
SL-16 R/B 2.4 23:20:20 30° S 23:22:59 56° ESE 23:28:33 10° NE
Cosmos 2058 Rocket 4.5 23:20:08 10° NNW 23:23:53 27° W 23:25:34 21° WSW
USA 215 3.8 23:20:01 10° NE 23:26:26 60° NNW 23:32:50 10° W
Cosmos 1812 Rocket 3.5 23:22:10 10° NNW 23:26:32 81° W 23:28:14 37° S
Cosmos 2237 Rocket 2.7 23:24:07 18° SW 23:28:11 56° WNW 23:33:45 10° NNE
FALCON 9 DEB 4.0 23:26:26 10° W 23:29:27 45° NNW 23:32:28 10° ENE
ATLAS CENTAUR R/B 3.7 23:25:37 21° SW 23:29:49 80° SE 23:44:53 10° NE
Tsikada Rocket 4.0 23:28:42 27° SSW 23:32:14 77° W 23:38:26 10° N
SL-16 R/B 4.0 23:27:48 10° ESE 23:33:12 33° ENE 23:38:36 10° N
Thor Agena Rocket 3.7 23:28:22 10° N 23:33:37 70° WNW 23:36:27 27° SSW
GP-B 3.2 23:30:47 10° N 23:35:12 67° W 23:37:02 34° SSW
Cosmos 1825 4.2 23:33:53 15° ESE 23:35:34 20° E 23:38:20 10° NE
Cosmos 2369 Rocket 3.0 23:32:40 10° NNW 23:38:16 50° NE 23:43:48 10° SE
Meteor 1-4 Rocket 3.6 23:41:13 10° NNW 23:44:17 29° W 23:44:51 28° WSW
Cosmos 724 4.4 23:40:08 10° NW 23:46:16 64° WSW 23:50:00 24° SSE
Cosmos 2221 4.3 23:44:20 10° NNE 23:48:00 26° ENE 23:51:37 10° SE
SJ 16-02 1.5 23:51:01 10° NNW 23:55:19 57° WSW 23:57:01 33° S
